Flag for Germany Weather past 2 weeks in Papenburg, Lower Saxony, Germany

Now
62 °F

Fog.


Feels Like: 62 °F
Forecast: 53 / 68 °F
Wind: 3 mph from Southwest

Location: Emden-Koenigspolder

Current Time: Sep 30, 2014 at 10:19:09 PM

Latest Report: Sep 30, 2014 at 9:00 PM


Visibility: 4 mi

Pressure: 30.24 "Hg

Humidity: 82%

Dew point: 56 °F

Location of PapenburgLocation

Historic Weather in Papenburg — Graph

°F

Papenburg temperature yesterday

Maximum temperature yesterday: 69 °F (at 2:00 PM)
Minimum temperature yesterday: 49 °F (at 6:00 AM)
Average temperature yesterday: 60 °F

Past Weeks' High & Low Weather Summary

 TemperatureHumidityPressure
High77 °F (Sep 19, 4:00 PM)100% (Sep 16, 7:00 AM)30.36 "Hg (Sep 16, 7:00 AM)
Low47 °F (Sep 23, 5:00 AM)48% (Sep 22, 4:00 PM)29.74 "Hg (Sep 24, 5:00 PM)
Average60 °F80%30.03 "Hg
* Reported Sep 15 9:00 PM — Sep 30 9:00 PM, Papenburg, Weather by CustomWeather, © 2014

Note: Actual official high and low records may vary slightly from our data, if they occured in-between our weather recording intervals... More about our weather records

Advertising

Papenburg weather history for previous 24 hours

 ConditionsComfort  
Time TempWeatherWind HumidityBarometerVisibility
9:00 PM
Sep 30
62 °FFog.3 mph82%30.24 "Hg4 mi
8:00 PM63 °FFog.3 mph81%30.23 "Hg4 mi
7:00 PM63 °FOvercast.5 mph80%30.22 "Hg5 mi
6:00 PM65 °FFog.3 mph84%30.20 "Hg4 mi
5:00 PM67 °FOvercast.3 mph75%30.20 "Hg6 mi
4:00 PM67 °FOvercast.5 mph71%30.20 "Hg8 mi
3:00 PM68 °FOvercast.6 mph68%30.20 "Hg6 mi
2:00 PM68 °FPartly sunny.6 mph69%30.19 "Hg8 mi
1:00 PM67 °FOvercast.5 mph75%30.19 "Hg6 mi
12:00 PM65 °FFog.5 mph85%30.19 "Hg3 mi
10:00 AM62 °FFog.3 mph94%30.17 "Hg2 mi
9:00 AM61 °FFog.3 mph95%30.16 "Hg2 mi
8:00 AM61 °FLow clouds.2 mph96%30.15 "Hg2 mi
7:00 AM61 °FLow clouds.3 mph96%30.15 "Hg2 mi
6:00 AM60 °FLight rain. Overcast.2 mph97%30.15 "Hg1 mi
4:00 AM61 °FOvercast.3 mph95%30.14 "Hg2 mi
3:00 AM61 °FLight rain. Low clouds.2 mph94%30.15 "Hg2 mi
2:00 AM62 °FDrizzle. Low clouds.3 mph93%30.16 "Hg2 mi
1:00 AM62 °FFog.3 mph93%30.16 "Hg2 mi
12:00 AM62 °FFog.5 mph93%30.16 "Hg2 mi
11:00 PM
Sep 29
62 °FFog.3 mph90%30.15 "Hg3 mi
10:00 PM64 °FFog.3 mph85%30.15 "Hg4 mi
Weather by CustomWeather, © 2014

See weather overviewHow to use our weather pages